Check out our new BloomSky Weather System.

Active alerts

Galveston, TX
  Details for Galveston, TX Coastal Flood Advisory  +2 additional alerts
Houston, TX
  Details for Houston, TX Flash Flood Watch
Fort Bend, TX
  Details for Fort Bend, TX Flash Flood Watch


Thunder radar  blitzortung!


Rain radar more information rain snow radar


Visit our other weather sites:

Template documentation
and downloads

And another site



Weather Underground History page Text

Daily Summary for February 13, 2018 Units:  Metric    English   Both
« Previous Day
Next Day »
Daily Weekly Monthly Yearly Custom
  High: Low: Average:
Temperature: -17.8 °C 6.1 °C 8.1 °C
Dew Point: -17.8 °C 5.2 °C 7.6 °C
Humidity: Humidity % 93 % 96 %
Wind Speed: 0 km/h 0 km/h 1.3 km/h
Wind Gust: 0 km/h - -
Wind:- - South
Pressure: 0 hPa 1027.3 hPa -
Precipitation: 2.54 mm    
Historical Graphs
 
 
Tabular Data for February 13, 2018
Time Temperature Dew Point Pressure Wind Wind Speed Wind Gust Humidity Rainfall Rate (Hourly)
-17.8 °C -17.8 °C 0 hPa Calm     Humidity % 0 mm
00:04 6.4 °C 5.5 °C 1028.7 hPa NNW 1.6 km/h 4.8 km/h 94 % 0 mm
00:09 6.3 °C 5.4 °C 1028.7 hPa Calm   4.8 km/h 94 % 0 mm
00:14 6.3 °C 5.4 °C 1028.7 hPa East 3.2 km/h 4.8 km/h 94 % 0 mm
00:19 6.3 °C 5.4 °C 1028.7 hPa North 3.2 km/h 6.4 km/h 94 % 0 mm
00:24 6.2 °C 5.3 °C 1028.7 hPa North 1.6 km/h 6.4 km/h 94 % 0 mm
00:29 6.2 °C 5.3 °C 1028.7 hPa North 1.6 km/h 8 km/h 94 % 0 mm
00:34 6.3 °C 5.4 °C 1029 hPa Calm   8 km/h 94 % 0 mm
00:39 6.3 °C 5.4 °C 1029 hPa Calm   8 km/h 94 % 0 mm
00:44 6.3 °C 5.4 °C 1029 hPa NNE 3.2 km/h 4.8 km/h 94 % 0 mm
00:49 6.3 °C 5.4 °C 1029 hPa Calm   3.2 km/h 94 % 0 mm
00:54 6.3 °C 5.4 °C 1029 hPa Calm   3.2 km/h 94 % 0 mm
00:59 6.2 °C 5.3 °C 1029 hPa Calm   4.8 km/h 94 % 0 mm
01:04 6.2 °C 5.2 °C 1029 hPa Calm   4.8 km/h 93 % 0 mm
01:09 6.2 °C 5.2 °C 1028.7 hPa North 8 km/h 8 km/h 93 % 0 mm
01:14 6.2 °C 5.2 °C 1028.7 hPa NNE 1.6 km/h 9.7 km/h 93 % 0 mm
01:19 6.2 °C 5.2 °C 1029 hPa Calm   9.7 km/h 93 % 0 mm
01:24 6.3 °C 5.3 °C 1028.7 hPa Calm   9.7 km/h 93 % 0 mm
01:29 6.3 °C 5.3 °C 1028.7 hPa NNE 3.2 km/h 4.8 km/h 93 % 0 mm
01:34 6.3 °C 5.3 °C 1028.7 hPa NE 3.2 km/h 4.8 km/h 93 % 0 mm
01:39 6.3 °C 5.3 °C 1028.7 hPa NNW 8 km/h 8 km/h 93 % 0 mm
01:44 6.3 °C 5.3 °C 1028.3 hPa NE 4.8 km/h 8 km/h 93 % 0 mm
01:49 6.3 °C 5.3 °C 1028.3 hPa North 1.6 km/h 8 km/h 93 % 0 mm
01:54 6.3 °C 5.3 °C 1028.7 hPa NW 1.6 km/h 8 km/h 93 % 0 mm
01:59 6.3 °C 5.3 °C 1028.7 hPa NNW 1.6 km/h 8 km/h 93 % 0 mm
02:04 6.3 °C 5.3 °C 1028.7 hPa NW 3.2 km/h 4.8 km/h 93 % 0 mm
02:09 6.3 °C 5.3 °C 1028.7 hPa Calm   6.4 km/h 93 % 0 mm
02:14 6.3 °C 5.3 °C 1028.7 hPa Calm   6.4 km/h 93 % 0 mm
02:19 6.3 °C 5.3 °C 1028.7 hPa Calm   6.4 km/h 93 % 0 mm
02:24 6.3 °C 5.3 °C 1028.7 hPa East 1.6 km/h 3.2 km/h 93 % 0 mm
02:29 6.3 °C 5.3 °C 1028.7 hPa Calm   3.2 km/h 93 % 0 mm
02:34 6.3 °C 5.3 °C 1028.7 hPa North 1.6 km/h 1.6 km/h 93 % 0 mm
02:39 6.3 °C 5.3 °C 1028.7 hPa NNE 1.6 km/h 3.2 km/h 93 % 0 mm
02:44 6.3 °C 5.3 °C 1028.3 hPa Calm   3.2 km/h 93 % 0 mm
02:49 6.3 °C 5.3 °C 1028.3 hPa East 3.2 km/h 3.2 km/h 93 % 0 mm
02:54 6.4 °C 5.4 °C 1028.3 hPa Calm   3.2 km/h 93 % 0 mm
02:59 6.3 °C 5.3 °C 1028.3 hPa Calm   3.2 km/h 93 % 0 mm
03:04 6.4 °C 5.4 °C 1028.3 hPa NNE 1.6 km/h 3.2 km/h 93 % 0 mm
03:09 6.3 °C 5.3 °C 1028.3 hPa Calm   3.2 km/h 93 % 0 mm
03:14 6.3 °C 5.3 °C 1028 hPa NE 1.6 km/h 4.8 km/h 93 % 0 mm
03:19 6.3 °C 5.3 °C 1028 hPa NE 4.8 km/h 6.4 km/h 93 % 0 mm
03:24 6.3 °C 5.3 °C 1028 hPa ENE 3.2 km/h 6.4 km/h 93 % 0 mm
03:29 6.2 °C 5.2 °C 1027.7 hPa Calm   6.4 km/h 93 % 0 mm
03:34 6.2 °C 5.2 °C 1027.7 hPa ENE 3.2 km/h 6.4 km/h 93 % 0 mm
03:39 6.2 °C 5.2 °C 1027.7 hPa NE 8 km/h 8 km/h 93 % 0 mm
03:44 6.2 °C 5.2 °C 1027.7 hPa ENE 3.2 km/h 9.7 km/h 93 % 0 mm
03:49 6.2 °C 5.2 °C 1027.7 hPa Calm   9.7 km/h 93 % 0 mm
03:54 6.2 °C 5.2 °C 1028 hPa North 1.6 km/h 9.7 km/h 93 % 0 mm
03:59 6.2 °C 5.2 °C 1028 hPa Calm   8 km/h 93 % 0 mm
04:04 6.2 °C 5.2 °C 1028.3 hPa Calm   8 km/h 93 % 0 mm
04:09 6.2 °C 5.2 °C 1028.3 hPa NW 1.6 km/h 4.8 km/h 93 % 0 mm
04:14 6.2 °C 5.2 °C 1028.3 hPa Calm   4.8 km/h 93 % 0 mm
04:19 6.2 °C 5.2 °C 1028.3 hPa NW 1.6 km/h 6.4 km/h 93 % 0 mm
04:24 6.2 °C 5.2 °C 1028.7 hPa Calm   6.4 km/h 93 % 0 mm
04:29 6.2 °C 5.2 °C 1029 hPa Calm   6.4 km/h 93 % 0 mm
04:34 6.3 °C 5.3 °C 1029 hPa North 1.6 km/h 4.8 km/h 93 % 0 mm
04:39 6.3 °C 5.3 °C 1028.7 hPa NNE 3.2 km/h 4.8 km/h 93 % 0 mm
04:44 6.3 °C 5.3 °C 1028.7 hPa NNW 1.6 km/h 4.8 km/h 93 % 0 mm
04:50 6.3 °C 5.3 °C 1028.7 hPa Calm   4.8 km/h 93 % 0 mm
04:55 6.3 °C 5.3 °C 1028.7 hPa Calm   4.8 km/h 93 % 0 mm
05:00 6.3 °C 5.3 °C 1028.7 hPa NW 1.6 km/h 4.8 km/h 93 % 0 mm
05:05 6.3 °C 5.4 °C 1028.7 hPa NW 3.2 km/h 4.8 km/h 94 % 0 mm
05:10 6.3 °C 5.4 °C 1028.7 hPa Calm   3.2 km/h 94 % 0 mm
05:15 6.3 °C 5.4 °C 1028.7 hPa Calm   4.8 km/h 94 % 0 mm
05:20 6.3 °C 5.4 °C 1028.7 hPa Calm   6.4 km/h 94 % 0 mm
05:25 6.3 °C 5.4 °C 1028.7 hPa Calm   6.4 km/h 94 % 0 mm
05:30 6.2 °C 5.3 °C 1028.3 hPa NNE 1.6 km/h 6.4 km/h 94 % 0 mm
05:35 6.2 °C 5.3 °C 1028.3 hPa NNE 1.6 km/h 6.4 km/h 94 % 0 mm
05:40 6.2 °C 5.3 °C 1028 hPa NNE 3.2 km/h 8 km/h 94 % 0 mm
05:45 6.2 °C 5.3 °C 1028.3 hPa NW 1.6 km/h 9.7 km/h 94 % 0 mm
05:50 6.2 °C 5.3 °C 1028.7 hPa North 3.2 km/h 9.7 km/h 94 % 0 mm
05:55 6.2 °C 5.3 °C 1028.7 hPa WNW 1.6 km/h 8 km/h 94 % 0 mm
06:00 6.1 °C 5.2 °C 1029.3 hPa NW 1.6 km/h 8 km/h 94 % 0 mm
06:05 6.1 °C 5.4 °C 1029 hPa Calm   8 km/h 95 % 0 mm
06:10 6.2 °C 5.5 °C 1029 hPa NNW 1.6 km/h 6.4 km/h 95 % 0 mm
06:15 6.2 °C 5.5 °C 1028.7 hPa Calm   6.4 km/h 95 % 0 mm
06:20 6.2 °C 5.5 °C 1029.3 hPa Calm   4.8 km/h 95 % 0 mm
06:25 6.2 °C 5.5 °C 1028.7 hPa North 1.6 km/h 4.8 km/h 95 % 0 mm
06:30 6.2 °C 5.5 °C 1029 hPa NNW 3.2 km/h 4.8 km/h 95 % 0 mm
06:35 6.2 °C 5.5 °C 1029 hPa Calm   4.8 km/h 95 % 0 mm
06:40 6.2 °C 5.5 °C 1029.3 hPa Calm   4.8 km/h 95 % 0 mm
06:45 6.2 °C 5.5 °C 1029.3 hPa NW 1.6 km/h 4.8 km/h 95 % 0 mm
06:50 6.2 °C 5.5 °C 1029.3 hPa NNW 4.8 km/h 4.8 km/h 95 % 0 mm
06:55 6.2 °C 5.5 °C 1029.3 hPa NNW 3.2 km/h 4.8 km/h 95 % 0 mm
07:00 6.2 °C 5.5 °C 1029.3 hPa NW 1.6 km/h 4.8 km/h 95 % 0 mm
07:05 6.3 °C 5.6 °C 1029.3 hPa NNW 1.6 km/h 4.8 km/h 95 % 0 mm
07:10 6.3 °C 5.6 °C 1029 hPa North 1.6 km/h 4.8 km/h 95 % 0 mm
07:15 6.3 °C 5.6 °C 1029 hPa Calm   8 km/h 95 % 0 mm
07:20 6.3 °C 5.6 °C 1029.3 hPa Calm   8 km/h 95 % 0 mm
07:25 6.3 °C 5.6 °C 1029.3 hPa NNE 4.8 km/h 8 km/h 95 % 0 mm
07:30 6.3 °C 5.7 °C 1029.3 hPa NNW 1.6 km/h 6.4 km/h 96 % 0 mm
07:35 6.3 °C 5.7 °C 1029.3 hPa Calm   6.4 km/h 96 % 0 mm
07:40 6.3 °C 5.7 °C 1029.3 hPa NW 1.6 km/h 6.4 km/h 96 % 0 mm
07:45 6.3 °C 5.7 °C 1029.3 hPa NW 1.6 km/h 6.4 km/h 96 % 0 mm
07:46 6.3 °C 5.7 °C 1029.3 hPa North 3.2 km/h 6.4 km/h 96 % 0 mm
07:51 6.3 °C 5.7 °C 1029.7 hPa Calm   8 km/h 96 % 0 mm
07:56 6.3 °C 5.7 °C 1030 hPa North 1.6 km/h 8 km/h 96 % 0 mm
08:01 6.4 °C 5.8 °C 1029.7 hPa Calm   8 km/h 96 % 0 mm
08:06 6.4 °C 5.8 °C 1030 hPa Calm   6.4 km/h 96 % 0 mm
08:11 6.4 °C 5.8 °C 1030 hPa Calm   6.4 km/h 96 % 0 mm
08:16 6.5 °C 5.9 °C 1030 hPa ENE 4.8 km/h 6.4 km/h 96 % 0 mm
08:21 6.5 °C 5.9 °C 1029.7 hPa ENE 4.8 km/h 9.7 km/h 96 % 0 mm
08:26 6.5 °C 5.9 °C 1029.7 hPa ENE 3.2 km/h 9.7 km/h 96 % 0 mm
08:31 6.5 °C 5.9 °C 1029.7 hPa ENE 4.8 km/h 9.7 km/h 96 % 0 mm
08:36 6.5 °C 5.9 °C 1029.3 hPa Calm   9.7 km/h 96 % 0 mm
08:41 6.5 °C 5.9 °C 1029.3 hPa Calm   9.7 km/h 96 % 0 mm
08:46 6.5 °C 5.9 °C 1029.3 hPa NE 1.6 km/h 9.7 km/h 96 % 0 mm
08:51 6.5 °C 5.9 °C 1029.7 hPa NNE 3.2 km/h 9.7 km/h 96 % 0 mm
08:56 6.6 °C 6 °C 1029.7 hPa ENE 3.2 km/h 9.7 km/h 96 % 0 mm
09:01 6.6 °C 6 °C 1029.3 hPa NNW 3.2 km/h 9.7 km/h 96 % 0 mm
09:06 6.7 °C 6.1 °C 1029.7 hPa NE 3.2 km/h 8 km/h 96 % 0 mm
09:11 6.7 °C 6.1 °C 1030 hPa ENE 1.6 km/h 9.7 km/h 96 % 0 mm
09:16 6.7 °C 6.3 °C 1030 hPa North 4.8 km/h 9.7 km/h 97 % 0 mm
09:21 6.8 °C 6.4 °C 1030.4 hPa NNW 8 km/h 9.7 km/h 97 % 0 mm
09:26 6.8 °C 6.2 °C 1030.4 hPa NW 1.6 km/h 8 km/h 96 % 0 mm
09:31 6.8 °C 6.2 °C 1030.4 hPa NNW 4.8 km/h 8 km/h 96 % 0 mm
09:36 6.8 °C 6.4 °C 1030.4 hPa NW 1.6 km/h 8 km/h 97 % 0 mm
09:41 6.8 °C 6.4 °C 1030.4 hPa NW 1.6 km/h 6.4 km/h 97 % 0 mm
09:46 6.8 °C 6.4 °C 1030.7 hPa Calm   6.4 km/h 97 % 0 mm
09:51 6.8 °C 6.4 °C 1031 hPa Calm   6.4 km/h 97 % 0 mm
09:56 6.8 °C 6.4 °C 1031 hPa Calm   4.8 km/h 97 % 0 mm
10:01 6.8 °C 6.4 °C 1031 hPa NNW 4.8 km/h 4.8 km/h 97 % 0 mm
10:06 6.8 °C 6.4 °C 1030.7 hPa NW 3.2 km/h 6.4 km/h 97 % 0 mm
10:11 6.9 °C 6.5 °C 1030.7 hPa Calm   6.4 km/h 97 % 0 mm
10:16 6.9 °C 6.5 °C 1031 hPa Calm   6.4 km/h 97 % 0 mm
10:21 6.9 °C 6.5 °C 1031 hPa North 1.6 km/h 4.8 km/h 97 % 0.25 mm
10:26 6.9 °C 6.5 °C 1031 hPa Calm   4.8 km/h 97 % 0.25 mm
10:31 6.9 °C 6.5 °C 1031 hPa NNW 4.8 km/h 4.8 km/h 97 % 0.25 mm
10:36 7.1 °C 6.7 °C 1030.7 hPa Calm   6.4 km/h 97 % 0.25 mm
10:41 7.1 °C 6.7 °C 1030.7 hPa NNW 1.6 km/h 6.4 km/h 97 % 0.25 mm
10:46 7.1 °C 6.8 °C 1030.7 hPa NE 1.6 km/h 6.4 km/h 98 % 0.51 mm
10:51 7.1 °C 6.7 °C 1030.4 hPa ENE 3.2 km/h 8 km/h 97 % 0.76 mm
10:56 7.1 °C 6.8 °C 1030.4 hPa Calm   8 km/h 98 % 1.02 mm
11:01 7.1 °C 6.8 °C 1030 hPa NNW 3.2 km/h 8 km/h 98 % 1.02 mm
11:06 7.2 °C 6.9 °C 1030.4 hPa ENE 3.2 km/h 6.4 km/h 98 % 1.27 mm
11:11 7.2 °C 6.9 °C 1030.4 hPa NNW 3.2 km/h 6.4 km/h 98 % 1.27 mm
11:16 7.2 °C 6.9 °C 1030.4 hPa Calm   6.4 km/h 98 % 1.27 mm
11:21 7.3 °C 7 °C 1030.7 hPa Calm   6.4 km/h 98 % 1.02 mm
11:26 7.3 °C 7 °C 1030.4 hPa Calm   6.4 km/h 98 % 1.02 mm
11:31 7.4 °C 7.1 °C 1030.4 hPa NNW 3.2 km/h 6.4 km/h 98 % 1.02 mm
11:36 7.4 °C 7.1 °C 1030.4 hPa Calm   6.4 km/h 98 % 1.27 mm
11:41 7.3 °C 7 °C 1030.4 hPa ENE 1.6 km/h 4.8 km/h 98 % 1.78 mm
11:46 7.3 °C 7 °C 1030 hPa NW 1.6 km/h 6.4 km/h 98 % 1.78 mm
11:51 7.3 °C 7 °C 1030 hPa NNE 1.6 km/h 6.4 km/h 98 % 1.52 mm
11:56 7.4 °C 7.1 °C 1030 hPa NW 3.2 km/h 6.4 km/h 98 % 1.27 mm
12:01 7.4 °C 7.1 °C 1030 hPa Calm   6.4 km/h 98 % 1.27 mm
12:06 7.6 °C 7.3 °C 1030 hPa Calm   6.4 km/h 98 % 1.02 mm
12:11 7.6 °C 7.3 °C 1030.4 hPa Calm   3.2 km/h 98 % 1.02 mm
12:12 7.6 °C 7.3 °C 1030 hPa Calm   3.2 km/h 98 % 1.02 mm
12:17 7.7 °C 7.4 °C 1030 hPa NNW 1.6 km/h 3.2 km/h 98 % 1.02 mm
12:22 7.7 °C 7.4 °C 1030.4 hPa Calm   4.8 km/h 98 % 1.02 mm
12:27 7.7 °C 7.4 °C 1030 hPa NNW 1.6 km/h 4.8 km/h 98 % 1.02 mm
12:32 7.8 °C 7.5 °C 1030 hPa Calm   4.8 km/h 98 % 1.02 mm
12:37 7.9 °C 7.6 °C 1029.7 hPa Calm   3.2 km/h 98 % 0.76 mm
12:42 8 °C 7.7 °C 1029.7 hPa NW 3.2 km/h 3.2 km/h 98 % 0.25 mm
12:47 8.1 °C 7.8 °C 1029.3 hPa Calm   4.8 km/h 98 % 0 mm
12:52 8.2 °C 7.9 °C 1029.3 hPa Calm   4.8 km/h 98 % 0 mm
12:57 8.2 °C 7.9 °C 1029.3 hPa NNW 1.6 km/h 4.8 km/h 98 % 0 mm
13:02 8.3 °C 8 °C 1029 hPa NW 1.6 km/h 4.8 km/h 98 % 0 mm
13:07 8.4 °C 8.1 °C 1029 hPa Calm   4.8 km/h 98 % 0 mm
13:12 8.4 °C 8.1 °C 1028.7 hPa NE 1.6 km/h 4.8 km/h 98 % 0 mm
13:17 8.5 °C 8.2 °C 1028.7 hPa Calm   4.8 km/h 98 % 0 mm
13:22 8.6 °C 8.3 °C 1028.7 hPa Calm   4.8 km/h 98 % 0 mm
13:27 8.6 °C 8.3 °C 1028.7 hPa North 1.6 km/h 6.4 km/h 98 % 0 mm
13:32 8.7 °C 8.4 °C 1028.7 hPa NNW 1.6 km/h 6.4 km/h 98 % 0 mm
13:37 8.8 °C 8.5 °C 1028.7 hPa NNE 1.6 km/h 6.4 km/h 98 % 0 mm
13:42 9.1 °C 8.8 °C 1028.7 hPa North 3.2 km/h 6.4 km/h 98 % 0 mm
13:47 9.1 °C 8.8 °C 1028.7 hPa Calm   6.4 km/h 98 % 0 mm
13:52 9.2 °C 8.9 °C 1028.3 hPa North 1.6 km/h 6.4 km/h 98 % 0 mm
13:57 9.2 °C 8.9 °C 1028.7 hPa North 1.6 km/h 4.8 km/h 98 % 0 mm
14:02 9.2 °C 8.9 °C 1028.7 hPa North 1.6 km/h 4.8 km/h 98 % 0 mm
14:07 9.2 °C 8.9 °C 1028.7 hPa NE 3.2 km/h 4.8 km/h 98 % 0 mm
14:12 9.1 °C 8.6 °C 1028.3 hPa NW 1.6 km/h 8 km/h 97 % 0 mm
14:17 9.2 °C 8.9 °C 1028.3 hPa Calm   8 km/h 98 % 0 mm
14:22 9.3 °C 9 °C 1028.3 hPa NNW 1.6 km/h 8 km/h 98 % 0 mm
14:27 9.2 °C 8.7 °C 1028.3 hPa Calm   6.4 km/h 97 % 0 mm
14:32 9.2 °C 8.7 °C 1028 hPa NNW 4.8 km/h 8 km/h 97 % 0 mm
14:37 9.3 °C 9 °C 1028 hPa ENE 1.6 km/h 8 km/h 98 % 0 mm
14:40 9.4 °C 9.1 °C 1027.7 hPa Calm   8 km/h 98 % 0 mm
14:45 9.6 °C 9.1 °C 1027.7 hPa NW 3.2 km/h 6.4 km/h 97 % 0 mm
14:50 9.4 °C 8.9 °C 1027.7 hPa ENE 3.2 km/h 8 km/h 97 % 0 mm
14:55 9.4 °C 8.9 °C 1028 hPa Calm   8 km/h 97 % 0 mm
15:00 9.6 °C 9.3 °C 1027.7 hPa WNW 1.6 km/h 8 km/h 98 % 0 mm
15:05 9.6 °C 9.1 °C 1027.7 hPa NE 3.2 km/h 8 km/h 97 % 0 mm
15:10 9.8 °C 9.3 °C 1027.7 hPa Calm   6.4 km/h 97 % 0 mm
15:15 9.8 °C 9.3 °C 1027.7 hPa North 3.2 km/h 8 km/h 97 % 0 mm
15:20 9.8 °C 9.3 °C 1027.7 hPa ENE 3.2 km/h 8 km/h 97 % 0 mm
15:26 9.9 °C 9.4 °C 1027.3 hPa NNW 1.6 km/h 8 km/h 97 % 0 mm
15:31 10.1 °C 9.6 °C 1027.3 hPa Calm   8 km/h 97 % 0 mm
15:36 10 °C 9.5 °C 1027.3 hPa ENE 3.2 km/h 8 km/h 97 % 0 mm
15:41 10 °C 9.4 °C 1027.7 hPa Calm   8 km/h 96 % 0 mm
15:46 10 °C 9.5 °C 1027.3 hPa NW 1.6 km/h 8 km/h 97 % 0 mm
15:51 10.1 °C 9.5 °C 1027.3 hPa Calm   8 km/h 96 % 0 mm
15:56 10.1 °C 9.5 °C 1027.3 hPa ESE 4.8 km/h 8 km/h 96 % 0 mm
16:01 10.1 °C 9.5 °C 1027.3 hPa North 1.6 km/h 6.4 km/h 96 % 0 mm
16:06 10.1 °C 9.5 °C 1027.3 hPa Calm   6.4 km/h 96 % 0 mm
16:11 10.1 °C 9.5 °C 1027.7 hPa Calm   6.4 km/h 96 % 0 mm
16:16 10.1 °C 9.5 °C 1027.7 hPa Calm   4.8 km/h 96 % 0 mm
16:21 10.2 °C 9.6 °C 1027.7 hPa Calm   4.8 km/h 96 % 0 mm
16:26 10.2 °C 9.6 °C 1027.7 hPa NW 1.6 km/h 4.8 km/h 96 % 0 mm
16:31 10.2 °C 9.6 °C 1028 hPa Calm   6.4 km/h 96 % 0 mm
16:36 10.2 °C 9.6 °C 1028 hPa ENE 1.6 km/h 6.4 km/h 96 % 0 mm
16:41 10.2 °C 9.6 °C 1027.7 hPa NE 1.6 km/h 6.4 km/h 96 % 0 mm
16:46 10.2 °C 9.6 °C 1027.7 hPa NW 6.4 km/h 6.4 km/h 96 % 0 mm
16:51 10.2 °C 9.7 °C 1027.7 hPa Calm   8 km/h 97 % 0 mm
16:56 10.2 °C 9.7 °C 1027.7 hPa North 1.6 km/h 8 km/h 97 % 0 mm
17:01 10.1 °C 9.6 °C 1027.7 hPa Calm   8 km/h 97 % 0 mm
17:06 10.1 °C 9.6 °C 1027.7 hPa NW 1.6 km/h 4.8 km/h 97 % 0 mm
17:11 10.1 °C 9.6 °C 1027.7 hPa NNW 1.6 km/h 6.4 km/h 97 % 0 mm
17:16 10.1 °C 9.6 °C 1027.7 hPa Calm   6.4 km/h 97 % 0 mm
17:21 10.1 °C 9.6 °C 1027.7 hPa Calm   6.4 km/h 97 % 0 mm
17:26 10.1 °C 9.6 °C 1027.7 hPa Calm   4.8 km/h 97 % 0 mm
17:31 10.1 °C 9.6 °C 1028 hPa Calm   4.8 km/h 97 % 0 mm
17:36 10.1 °C 9.6 °C 1028 hPa NNE 1.6 km/h 4.8 km/h 97 % 0 mm
17:41 10 °C 9.7 °C 1028 hPa Calm   4.8 km/h 98 % 0 mm
17:46 10 °C 9.7 °C 1028 hPa NE 1.6 km/h 4.8 km/h 98 % 0 mm
17:51 10 °C 9.7 °C 1027.7 hPa ENE 1.6 km/h 4.8 km/h 98 % 0 mm
17:56 10 °C 9.7 °C 1027.7 hPa NNE 1.6 km/h 4.8 km/h 98 % 0 mm
18:01 10 °C 9.7 °C 1028 hPa North 1.6 km/h 3.2 km/h 98 % 0 mm
18:06 10 °C 9.7 °C 1028 hPa ENE 1.6 km/h 3.2 km/h 98 % 0 mm
18:11 10 °C 9.7 °C 1028 hPa Calm   3.2 km/h 98 % 0 mm
18:16 10 °C 9.7 °C 1028 hPa NE 1.6 km/h 4.8 km/h 98 % 0 mm
18:21 10 °C 9.7 °C 1028 hPa Calm   4.8 km/h 98 % 0 mm
18:26 10 °C 9.7 °C 1027.7 hPa North 1.6 km/h 4.8 km/h 98 % 0 mm
18:31 10 °C 9.7 °C 1027.7 hPa ENE 3.2 km/h 4.8 km/h 98 % 0 mm
18:36 10 °C 9.7 °C 1027.7 hPa ENE 1.6 km/h 4.8 km/h 98 % 0 mm
18:41 10 °C 9.7 °C 1027.7 hPa Calm   4.8 km/h 98 % 0 mm
18:46 10 °C 9.7 °C 1027.7 hPa Calm   4.8 km/h 98 % 0 mm
18:51 10 °C 9.7 °C 1027.7 hPa Calm   4.8 km/h 98 % 0 mm
18:56 10.1 °C 9.8 °C 1027.7 hPa Calm   4.8 km/h 98 % 0 mm
19:01 10.1 °C 9.8 °C 1027.7 hPa Calm   3.2 km/h 98 % 0 mm
19:06 10.1 °C 9.8 °C 1027.7 hPa North 1.6 km/h 3.2 km/h 98 % 0 mm
19:11 10.1 °C 9.9 °C 1028 hPa Calm   3.2 km/h 99 % 0 mm
19:16 10.1 °C 9.9 °C 1027.7 hPa ENE 1.6 km/h 3.2 km/h 99 % 0 mm
19:21 10.1 °C 9.9 °C 1027.7 hPa East 1.6 km/h 3.2 km/h 99 % 0 mm
19:26 10.1 °C 9.9 °C 1027.7 hPa Calm   4.8 km/h 99 % 0 mm
19:31 10.1 °C 9.9 °C 1028 hPa ENE 1.6 km/h 4.8 km/h 99 % 0 mm
19:36 10.1 °C 9.9 °C 1027.7 hPa Calm   4.8 km/h 99 % 0 mm
19:41 10.2 °C 10 °C 1027.7 hPa ESE 1.6 km/h 3.2 km/h 99 % 0 mm
19:46 10.2 °C 10 °C 1027.7 hPa Calm   3.2 km/h 99 % 0 mm
19:51 10.2 °C 10 °C 1028 hPa Calm   3.2 km/h 99 % 0 mm
19:56 10.2 °C 10 °C 1028 hPa North 1.6 km/h 3.2 km/h 99 % 0 mm
20:01 10.2 °C 10 °C 1028 hPa Calm   3.2 km/h 99 % 0 mm
20:06 10.2 °C 10 °C 1028 hPa Calm   3.2 km/h 99 % 0 mm
20:11 10.2 °C 10 °C 1027.7 hPa NW 1.6 km/h 3.2 km/h 99 % 0 mm
20:16 10.2 °C 10 °C 1027.7 hPa Calm   3.2 km/h 99 % 0 mm
20:21 10.2 °C 10 °C 1028 hPa Calm   3.2 km/h 99 % 0 mm
20:26 10.2 °C 10 °C 1028 hPa Calm   3.2 km/h 99 % 0 mm
20:31 10.2 °C 10 °C 1028.3 hPa Calm   3.2 km/h 99 % 0 mm
20:36 10.2 °C 10 °C 1028.3 hPa NNW 1.6 km/h 1.6 km/h 99 % 0 mm
20:41 10.3 °C 10.1 °C 1028 hPa Calm   3.2 km/h 99 % 0 mm
20:46 10.3 °C 10.1 °C 1028 hPa Calm   3.2 km/h 99 % 0 mm
20:51 10.3 °C 10.1 °C 1028.3 hPa Calm   3.2 km/h 99 % 0 mm
20:56 10.3 °C 10.1 °C 1028.3 hPa Calm   1.6 km/h 99 % 0 mm
21:01 10.3 °C 10.1 °C 1028.7 hPa NW 1.6 km/h 1.6 km/h 99 % 0 mm
21:06 10.3 °C 10.1 °C 1028.7 hPa NNW 1.6 km/h 3.2 km/h 99 % 0 mm
21:11 10.3 °C 10.1 °C 1028.7 hPa Calm   3.2 km/h 99 % 0 mm
21:16 10.4 °C 10.2 °C 1028.7 hPa Calm   3.2 km/h 99 % 0.25 mm
21:21 10.4 °C 10.2 °C 1028.3 hPa Calm   1.6 km/h 99 % 0.25 mm
21:26 10.4 °C 10.2 °C 1028.3 hPa Calm   1.6 km/h 99 % 0.25 mm
21:31 10.4 °C 10.2 °C 1028.3 hPa Calm   1.6 km/h 99 % 0.25 mm
21:36 10.4 °C 10.2 °C 1028.3 hPa NNE 1.6 km/h 1.6 km/h 99 % 0.25 mm
21:41 10.4 °C 10.2 °C 1028.3 hPa North 1.6 km/h 3.2 km/h 99 % 0.25 mm
21:46 10.4 °C 10.2 °C 1028.3 hPa ENE 1.6 km/h 3.2 km/h 99 % 0.25 mm
21:51 10.4 °C 10.2 °C 1028 hPa Calm   3.2 km/h 99 % 0.25 mm
21:56 10.4 °C 10.2 °C 1028 hPa Calm   3.2 km/h 99 % 0.25 mm
22:01 10.5 °C 10.3 °C 1028 hPa Calm   3.2 km/h 99 % 0.25 mm
22:06 10.5 °C 10.3 °C 1028 hPa Calm   3.2 km/h 99 % 0.25 mm
22:11 10.5 °C 10.3 °C 1027.7 hPa Calm   3.2 km/h 99 % 0.25 mm
22:16 10.5 °C 10.3 °C 1027.7 hPa ENE 3.2 km/h 3.2 km/h 99 % 0 mm
22:21 10.5 °C 10.3 °C 1027.7 hPa Calm   6.4 km/h 99 % 0 mm
22:26 10.5 °C 10.3 °C 1028 hPa Calm   6.4 km/h 99 % 0 mm
22:31 10.6 °C 10.4 °C 1028 hPa Calm   6.4 km/h 99 % 0 mm
22:36 10.6 °C 10.4 °C 1028 hPa Calm   3.2 km/h 99 % 0 mm
22:41 10.6 °C 10.4 °C 1028 hPa Calm   3.2 km/h 99 % 0 mm
22:47 10.6 °C 10.6 °C 1028 hPa Calm   3.2 km/h 100 % 0 mm
22:52 10.6 °C 10.4 °C 1028 hPa NE 1.6 km/h 3.2 km/h 99 % 0 mm
22:57 10.6 °C 10.4 °C 1027.7 hPa ENE 1.6 km/h 3.2 km/h 99 % 0 mm
23:02 10.6 °C 10.4 °C 1027.7 hPa Calm   3.2 km/h 99 % 0 mm
23:07 10.6 °C 10.6 °C 1027.7 hPa Calm   3.2 km/h 100 % 0 mm
23:12 10.6 °C 10.6 °C 1027.7 hPa Calm   3.2 km/h 100 % 0 mm
23:17 10.6 °C 10.6 °C 1027.7 hPa Calm   3.2 km/h 100 % 0 mm
23:22 10.6 °C 10.6 °C 1027.7 hPa Calm   3.2 km/h 100 % 0 mm
23:27 10.6 °C 10.6 °C 1027.7 hPa Calm   1.6 km/h 100 % 0 mm
23:32 10.7 °C 10.7 °C 1027.7 hPa Calm   3.2 km/h 100 % 0 mm
23:37 10.7 °C 10.7 °C 1027.7 hPa Calm   3.2 km/h 100 % 0 mm
23:42 10.7 °C 10.7 °C 1027.3 hPa Calm   3.2 km/h 100 % 0 mm
23:47 10.7 °C 10.7 °C 1027.3 hPa Calm   3.2 km/h 100 % 0 mm
23:52 10.7 °C 10.7 °C 1027.3 hPa Calm   3.2 km/h 100 % 0 mm
23:57 10.7 °C 10.7 °C 1027.3 hPa East 3.2 km/h 3.2 km/h 100 % 0 mm
Spring, Texas: Villages of Bridgestone
Compliments of Weather Underground - 3 mb

Script developed by  Jim McMurry - jmcmurry@mwt.net Adapted for the template by  Wim van der Kuil - Leuven-Template.eu

You find our weather info also at:

UK Metoffice

WeatherCloud

Weather Underground

Mid-South Weather Network

AWEKAS

Citizen Weather Observer Program (CWOP)

HAMweather, WeatherForYou, PWS Weather

Equipment we use:

Weather-station
Davis Vantage Vue

Weather-program
Meteohub

Weather-server
Debian 7.9 x86 (Guest)

Provider
DreamHost

Davis Vantage Vue

Meteohub

Debian 7.9 x86 (Guest)

DreamHost